This is the latest recevied weather packets stored in our database for station/object KI4HRG. If no packets are shown the sender has not sent any weather packets the latest 10 day(s).
| Time | Temp. | Humidity | Pressure | Rain* | Wind** | Luminosity | Snow |
|---|---|---|---|---|---|---|---|
| 1777209121 | 17.78° C | 99% | 1012.8 hPa | 0 mm | - | 175 W/m² | - |
| 1777208817 | 17.78° C | 99% | 1012.6 hPa | 0 mm | - | 154 W/m² | - |
| 1777208515 | 17.78° C | 99% | 1012.7 hPa | 0 mm | - | 150 W/m² | - |
| 1777208210 | 17.22° C | 99% | 1012.7 hPa | 0 mm | - | 146 W/m² | - |
| 1777207906 | 17.22° C | 99% | 1012.8 hPa | 0 mm | - | 141 W/m² | - |
| 1777207600 | 17.22° C | 99% | 1012.8 hPa | 0 mm | - | 133 W/m² | - |
| 1777207296 | 17.22° C | 99% | 1012.6 hPa | 0 mm | - | 128 W/m² | - |
| 1777206990 | 17.22° C | 99% | 1012.6 hPa | 0 mm | - | 98 W/m² | - |
| 1777206686 | 17.22° C | 99% | 1012.7 hPa | 0 mm | - | 85 W/m² | - |
| 1777206381 | 17.22° C | 99% | 1012.7 hPa | 0 mm | - | 71 W/m² | - |
| 1777206076 | 16.67° C | 99% | 1012.6 hPa | 0 mm | - | 64 W/m² | - |
| 1777205773 | 16.67° C | 99% | 1012.5 hPa | 0 mm | - | 64 W/m² | - |
| 1777205470 | 16.67° C | 99% | 1012.5 hPa | 0 mm | - | 60 W/m² | - |
| 1777205166 | 16.67° C | 99% | 1012.3 hPa | 0 mm | - | 46 W/m² | - |
| 1777204863 | 16.67° C | 99% | 1012.2 hPa | 0 mm | - | 37 W/m² | - |
| 1777204557 | 16.11° C | 99% | 1012.1 hPa | 0 mm | - | 26 W/m² | - |
| 1777204253 | 16.11° C | 99% | 1012.1 hPa | 0 mm | - | 20 W/m² | - |
| 1777203949 | 15.56° C | 99% | 1012 hPa | 0 mm | - | 17 W/m² | - |
| 1777203644 | 15.56° C | 99% | 1011.9 hPa | 0 mm | - | 13 W/m² | - |
| 1777203340 | 15.56° C | 99% | 1011.9 hPa | 0 mm | - | 15 W/m² | - |
| 1777203037 | 15.56° C | 99% | 1011.6 hPa | 0 mm | - | 14 W/m² | - |
| 1777202733 | 15.56° C | 99% | 1011.6 hPa | 0 mm | - | 11 W/m² | - |
| 1777202432 | 15.56° C | 99% | 1011.4 hPa | 0 mm | - | 9 W/m² | - |
| 1777202127 | 15.56° C | 99% | 1011.4 hPa | 0 mm | - | 6 W/m² | - |
| 1777201823 | 15° C | 99% | 1011.3 hPa | 0 mm | - | 4 W/m² | - |
* Rain latest hour (hover to see other rain measurements)
** Current wind speed in m/s (hover to see current wind gust speed)